Weather History for Gillette, WY

Change the Weather History Date:

Tuesday, May 14, 2013

  Actual Average Record
Temperature  
Mean Temperature 63 °F 52 °F  
Max Temperature 80 °F 65 °F 88 °F (1936)
Min Temperature 46 °F 40 °F 26 °F (1983)
Degree Days  
Heating Degree Days 2 13  
Month to date heating degree days 188 208  
Since 1 July heating degree days 7150 7224  
Cooling Degree Days 0 0  
Month to date cooling degree days 8 0  
Year to date cooling degree days 8 0  
Growing Degree Days 16 (Base 50)    
Moisture  
Dew Point 40 °F    
Average Humidity 44    
Maximum Humidity 62    
Minimum Humidity 26    
Precipitation  
Precipitation 0.00 in 0.08 in 1.62 in (1970)
Month to date precipitation 0.02 1.02  
Year to date precipitation 3.14 4.23  
Sea Level Pressure  
Sea Level Pressure 29.77 in    
Wind  
Wind Speed 9 mph (NNW)    
Max Wind Speed 20 mph    
Max Gust Speed 31 mph    
Visibility 10 miles    
Events      
T = Trace of Precipitation, MM = Missing Value Source: NWS Daily Summary

Daily Weather History Graph

Daily Weather History Graph

Search for Another Location

Airport:

Trip Planner

Search our weather history database for the weather conditions in past years. The results will help you decide how hot, cold, wet, or windy it might be!

Date:

Astronomy

May. 14, 2013 Rise Set
Actual Time 5:35 AM MDT 8:21 PM MDT
Civil Twilight 5:02 AM MDT 8:55 PM MDT
Nautical Twilight 4:19 AM MDT 9:38 PM MDT
Astronomical Twilight 3:30 AM MDT 10:27 PM MDT
Moon 9:18 AM MDT (5/14) No Moon Set
Length of Visible Light 15h 53m
Length of Day
14h 45m
Waxing Crescent, 19% of the Moon is Illuminated
May 14
Waxing Crescent
May 17
First Quarter
May 24
Full
May 31
Last Quarter
Jun 8
New

Hourly Weather History & Observations

Time (MDT) Temp. Dew Point Humidity Pressure Visibility Wind Dir Wind Speed Gust Speed Precip Events Conditions
12:53 AM 68.0 °F 32.0 °F 26% 29.65 in 10.0 mi SW 15.0 mph - N/A   Clear
1:53 AM 66.9 °F 32.0 °F 27% 29.65 in 10.0 mi WSW 16.1 mph - N/A   Clear
2:53 AM 66.9 °F 32.0 °F 27% 29.64 in 10.0 mi WSW 11.5 mph - N/A   Clear
3:53 AM 66.9 °F 32.0 °F 27% 29.65 in 10.0 mi WSW 17.3 mph - N/A   Clear
4:11 AM 69.8 °F 32.0 °F 25% 29.85 in 10.0 mi NNW 19.6 mph 31.1 mph N/A   Clear
4:25 AM 62.6 °F 33.8 °F 34% 29.86 in 10.0 mi NNW 13.8 mph - N/A   Clear
4:53 AM 59.0 °F 37.9 °F 46% 29.74 in 10.0 mi NNW 13.8 mph - N/A   Clear
5:53 AM 55.9 °F 43.0 °F 62% 29.78 in 10.0 mi NNW 11.5 mph - N/A   Clear
6:53 AM 59.0 °F 46.9 °F 64% 29.81 in 10.0 mi North 12.7 mph - N/A   Clear
7:53 AM 62.1 °F 48.0 °F 60% 29.86 in 10.0 mi North 12.7 mph - N/A   Clear
8:53 AM 64.0 °F 48.0 °F 56% 29.88 in 10.0 mi North 10.4 mph - N/A   Clear
9:53 AM 66.0 °F 46.9 °F 50% 29.87 in 10.0 mi Variable 5.8 mph - N/A   Clear
10:53 AM 69.1 °F 45.0 °F 42% 29.84 in 10.0 mi North 9.2 mph - N/A   Clear
11:53 AM 70.0 °F 44.1 °F 39% 29.83 in 10.0 mi Calm Calm - N/A   Clear
12:53 PM 73.0 °F 45.0 °F 37% 29.81 in 10.0 mi WSW 3.5 mph - N/A   Clear
1:53 PM 73.9 °F 44.1 °F 34% 29.78 in 10.0 mi WSW 5.8 mph - N/A   Clear
2:53 PM 75.0 °F 44.1 °F 33% 29.77 in 10.0 mi Calm Calm - N/A   Clear
3:53 PM 78.1 °F 44.1 °F 30% 29.72 in 10.0 mi Variable 6.9 mph - N/A   Clear
4:53 PM 78.1 °F 45.0 °F 31% 29.71 in 10.0 mi ESE 9.2 mph 17.3 mph N/A   Clear
5:53 PM 77.0 °F 45.0 °F 32% 29.71 in 10.0 mi NE 13.8 mph - N/A   Clear
6:53 PM 73.9 °F 46.0 °F 37% 29.71 in 10.0 mi ENE 11.5 mph - N/A   Clear
7:53 PM 69.1 °F 44.1 °F 40% 29.73 in 10.0 mi NE 16.1 mph 21.9 mph N/A   Clear
8:53 PM 64.0 °F 37.9 °F 38% 29.78 in 10.0 mi NE 12.7 mph - N/A   Clear
9:53 PM 61.0 °F 34.0 °F 36% 29.82 in 10.0 mi NNE 11.5 mph - N/A   Clear
10:53 PM 55.0 °F 33.1 °F 43% 29.83 in 10.0 mi NNW 3.5 mph - N/A   Clear
11:53 PM 57.0 °F 33.1 °F 40% 29.85 in 10.0 mi NNE 9.2 mph - N/A   Partly Cloudy